When you browse on this site, cookies collect data to enhance your experience and personalize the content and advertising you see.
Visit our Privacy Policy to learn more. By continuing to use the site, you agree to this use of cookies and data.
  • In Portugal
  • List of Countries
  • For 7 days
  • Water Temperature
  • Satellite Maps
  • Weather Map
  • Weather Widgets
  • user-avatar
    Login

    Hourly Weather Wieruszew

    Today, 18 April, Thursday

    Time Temperature Precipitation Wind Pressure Humidity
    00:00 +9°C° 0 mm 2 mps 763 mmHg 68%
    01:00 +8°C° 0 mm 2 mps 763 mmHg 69%
    02:00 +8°C° 0 mm 2 mps 763 mmHg 70%
    03:00 +8°C° 0 mm 2 mps 763 mmHg 70%
    04:00 +7°C° 0 mm 2 mps 763 mmHg 71%
    05:00 +8°C° 0 mm 2 mps 764 mmHg 70%
    06:00 +9°C° 0 mm 2 mps 764 mmHg 68%
    07:00 +12°C° 0 mm 2 mps 764 mmHg 66%
    08:00 +14°C° 0 mm 2 mps 765 mmHg 60%
    09:00 +16°C° 0 mm 3 mps 765 mmHg 54%
    10:00 +18°C° 0 mm 3 mps 765 mmHg 47%
    11:00 +18°C° 0 mm 3 mps 765 mmHg 44%
    12:00 +19°C° 0 mm 3 mps 764 mmHg 41%
    13:00 +20°C° 0 mm 3 mps 764 mmHg 38%
    14:00 +20°C° 0 mm 3 mps 764 mmHg 39%
    15:00 +20°C° 0 mm 3 mps 764 mmHg 39%
    16:00 +20°C° 0 mm 3 mps 764 mmHg 40%
    17:00 +18°C° 0 mm 3 mps 764 mmHg 44%
    18:00 +16°C° 0 mm 2 mps 764 mmHg 49%
    19:00 +14°C° 0 mm 2 mps 764 mmHg 54%
    20:00 +14°C° 0 mm 2 mps 765 mmHg 58%
    21:00 +13°C° 0 mm 2 mps 765 mmHg 61%
    22:00 +11°C° 0 mm 3 mps 766 mmHg 65%
    23:00 +10°C° 0 mm 3 mps 766 mmHg 69%

    Tomorrow, 19 April, Friday

    Time Temperature Precipitation Wind Pressure Humidity
    00:00 +10°C° 0 mm 3 mps 766 mmHg 73%
    01:00 +9°C° 0 mm 3 mps 766 mmHg 77%
    02:00 +8°C° 0 mm 3 mps 766 mmHg 78%
    03:00 +8°C° 0 mm 3 mps 766 mmHg 78%
    04:00 +7°C° 0 mm 3 mps 766 mmHg 79%
    05:00 +8°C° 0 mm 3 mps 766 mmHg 75%
    06:00 +9°C° 0 mm 3 mps 767 mmHg 71%
    07:00 +10°C° 0 mm 3 mps 767 mmHg 68%
    08:00 +12°C° 0 mm 3 mps 767 mmHg 61%
    09:00 +14°C° 0 mm 3 mps 767 mmHg 55%
    10:00 +17°C° 0 mm 3 mps 767 mmHg 49%
    11:00 +18°C° 0 mm 3 mps 767 mmHg 44%
    12:00 +19°C° 0 mm 3 mps 766 mmHg 40%
    13:00 +20°C° 0 mm 3 mps 766 mmHg 35%
    14:00 +20°C° 0 mm 3 mps 766 mmHg 35%
    15:00 +20°C° 0 mm 3 mps 766 mmHg 34%
    16:00 +20°C° 0 mm 3 mps 766 mmHg 34%
    17:00 +18°C° 0 mm 3 mps 765 mmHg 39%
    18:00 +16°C° 0 mm 2 mps 765 mmHg 44%
    19:00 +14°C° 0 mm 2 mps 765 mmHg 50%
    20:00 +12°C° 0 mm 3 mps 766 mmHg 56%
    21:00 +11°C° 0 mm 3 mps 766 mmHg 62%
    22:00 +9°C° 0 mm 3 mps 766 mmHg 69%
    23:00 +9°C° 0 mm 3 mps 766 mmHg 69%

    Day after tomorrow, 20 April, Saturday

    Time Temperature Precipitation Wind Pressure Humidity
    00:00 +8°C° 0 mm 3 mps 766 mmHg 70%
    01:00 +7°C° 0 mm 3 mps 766 mmHg 70%
    02:00 +5°C° 0 mm 3 mps 766 mmHg 68%
    03:00 +6°C° 0 mm 2 mps 765 mmHg 66%
    04:00 +5°C° 0 mm 2 mps 765 mmHg 64%
    05:00 +6°C° 0 mm 2 mps 765 mmHg 61%
    06:00 +6°C° 0 mm 2 mps 765 mmHg 58%
    07:00 +7°C° 0 mm 3 mps 765 mmHg 54%
    08:00 +9°C° 0 mm 3 mps 765 mmHg 50%
    09:00 +11°C° 0 mm 3 mps 765 mmHg 45%
    10:00 +13°C° 0 mm 3 mps 765 mmHg 41%
    11:00 +14°C° 0 mm 3 mps 764 mmHg 40%
    12:00 +15°C° 0 mm 4 mps 764 mmHg 40%
    13:00 +18°C° 0 mm 4 mps 764 mmHg 40%
    14:00 +18°C° 0 mm 4 mps 764 mmHg 41%
    15:00 +18°C° 0 mm 4 mps 763 mmHg 41%
    16:00 +18°C° 0 mm 4 mps 763 mmHg 42%
    17:00 +15°C° 0 mm 4 mps 763 mmHg 47%
    18:00 +13°C° 0 mm 3 mps 763 mmHg 51%
    19:00 +12°C° 0 mm 3 mps 763 mmHg 56%
    20:00 +10°C° 0 mm 3 mps 763 mmHg 58%
    21:00 +9°C° 0 mm 3 mps 763 mmHg 60%
    22:00 +8°C° 0 mm 3 mps 763 mmHg 63%
    23:00 +7°C° 0 mm 3 mps 763 mmHg 64%

    21 April, Sunday

    Time Temperature Precipitation Wind Pressure Humidity
    00:00 +7°C° 0 mm 3 mps 762 mmHg 66%
    01:00 +6°C° 0 mm 2 mps 762 mmHg 67%
    02:00 +6°C° 0 mm 2 mps 762 mmHg 68%
    03:00 +5°C° 0 mm 2 mps 762 mmHg 69%
    04:00 +5°C° 0 mm 2 mps 762 mmHg 69%
    05:00 +6°C° 0 mm 2 mps 762 mmHg 66%
    06:00 +7°C° 0 mm 2 mps 761 mmHg 63%
    07:00 +8°C° 0 mm 2 mps 761 mmHg 60%
    08:00 +10°C° 0 mm 2 mps 761 mmHg 54%
    09:00 +13°C° 0 mm 2 mps 761 mmHg 49%
    10:00 +15°C° 0 mm 2 mps 761 mmHg 43%
    11:00 +16°C° 0 mm 2 mps 760 mmHg 41%
    12:00 +17°C° 0 mm 2 mps 760 mmHg 39%
    13:00 +18°C° 0 mm 3 mps 759 mmHg 36%
    14:00 +18°C° 0 mm 3 mps 759 mmHg 37%
    15:00 +18°C° 0 mm 3 mps 759 mmHg 37%
    16:00 +18°C° 0 mm 3 mps 758 mmHg 37%
    17:00 +17°C° 0 mm 2 mps 758 mmHg 42%
    18:00 +15°C° 0 mm 2 mps 758 mmHg 47%
    19:00 +13°C° 0 mm 1 mps 758 mmHg 52%
    20:00 +13°C° 0 mm 1 mps 758 mmHg 55%
    21:00 +12°C° 0 mm 1 mps 758 mmHg 57%
    22:00 +11°C° 0 mm 1 mps 758 mmHg 60%
    23:00 +10°C° 0 mm 1 mps 758 mmHg 62%

    22 April, Monday

    Time Temperature Precipitation Wind Pressure Humidity
    00:00 +10°C° 0 mm 1 mps 758 mmHg 64%
    01:00 +9°C° 0 mm 1 mps 758 mmHg 67%
    02:00 +8°C° 0 mm 1 mps 757 mmHg 69%
    03:00 +8°C° 0 mm 1 mps 757 mmHg 71%
    04:00 +8°C° 0 mm 1 mps 757 mmHg 73%
    05:00 +9°C° 0 mm 1 mps 757 mmHg 70%
    06:00 +9°C° 0 mm 2 mps 757 mmHg 68%
    07:00 +10°C° 0 mm 2 mps 757 mmHg 65%
    08:00 +12°C° 0 mm 3 mps 757 mmHg 61%
    09:00 +13°C° 0 mm 3 mps 757 mmHg 56%
    10:00 +16°C° 0 mm 3 mps 757 mmHg 52%
    11:00 +15°C° 0.2 mm 4 mps 757 mmHg 50%
    12:00 +17°C° 0.2 mm 4 mps 756 mmHg 48%
    13:00 +18°C° 0.2 mm 4 mps 756 mmHg 46%
    14:00 +17°C° 0.2 mm 4 mps 756 mmHg 48%
    15:00 +17°C° 0.2 mm 4 mps 756 mmHg 50%
    16:00 +17°C° 0.2 mm 4 mps 756 mmHg 51%
    17:00 +14°C° 0.1 mm 4 mps 756 mmHg 59%
    18:00 +13°C° 0.1 mm 3 mps 756 mmHg 67%
    19:00 +11°C° 0.1 mm 3 mps 756 mmHg 74%
    20:00 +10°C° 0 mm 3 mps 756 mmHg 77%
    21:00 +10°C° 0 mm 3 mps 757 mmHg 79%
    22:00 +8°C° 0 mm 4 mps 757 mmHg 82%
    23:00 +8°C° 0 mm 4 mps 757 mmHg 82%

    23 April, Tuesday

    Time Temperature Precipitation Wind Pressure Humidity
    00:00 +8°C° 0 mm 5 mps 757 mmHg 83%
    01:00 +8°C° 0 mm 5 mps 757 mmHg 84%
    02:00 +7°C° 0 mm 6 mps 757 mmHg 81%
    03:00 +7°C° 0 mm 6 mps 757 mmHg 78%
    04:00 +7°C° 0 mm 6 mps 757 mmHg 75%
    05:00 +6°C° 0 mm 7 mps 757 mmHg 72%
    06:00 +7°C° 0 mm 8 mps 756 mmHg 70%
    07:00 +7°C° 0 mm 8 mps 756 mmHg 67%
    08:00 +10°C° 0 mm 8 mps 756 mmHg 65%
    09:00 +11°C° 0 mm 8 mps 756 mmHg 63%
    10:00 +13°C° 0 mm 8 mps 756 mmHg 60%
    11:00 +13°C° 0.2 mm 8 mps 755 mmHg 63%
    12:00 +13°C° 0.2 mm 8 mps 755 mmHg 65%
    13:00 +13°C° 0.2 mm 8 mps 754 mmHg 67%
    14:00 +15°C° 0 mm 8 mps 754 mmHg 63%
    15:00 +16°C° 0 mm 9 mps 754 mmHg 59%
    16:00 +17°C° 0 mm 9 mps 753 mmHg 56%
    17:00 +16°C° 0 mm 8 mps 753 mmHg 56%
    18:00 +15°C° 0 mm 8 mps 753 mmHg 56%
    19:00 +15°C° 0 mm 8 mps 753 mmHg 56%
    20:00 +13°C° 0 mm 8 mps 753 mmHg 56%
    21:00 +12°C° 0 mm 7 mps 753 mmHg 56%
    22:00 +12°C° 0 mm 7 mps 753 mmHg 56%
    23:00 +11°C° 0 mm 7 mps 753 mmHg 56%
    Show more